QPF
0.03 0.03 0.01 0.00 0.00 0.01 0.00 0.00 0.00 0.00 0.00 0.00 0.00 0.00 0.00 0.00 0.00 0.00 0.00 0.00 0.00 0.00 0.00 0.00 0.00 0.00 0.00 0.00 0.00 0.00 0.00 0.00 0.00 0.00 0.00 0.00 0.00 0.00 0.00 0.00 0.00 0.00 0.00 0.00
0.03 0.02 0.01 0.00 0.00 0.00 0.00 0.00 0.00 0.00 0.00 0.00 0.00 0.00 0.00 0.00 0.00 0.00 0.00 0.00 0.00 0.00 0.00 0.00 0.00 0.00 0.00 0.00 0.00 0.00 0.00 0.00 0.00 0.00 0.00 0.00 0.00 0.00 0.00 0.00 0.00 0.00 0.00 0.00
0.03 0.01 0.00 0.00 0.00 0.00 0.00 0.00 0.00 0.00 0.00 0.00 0.00 0.00 0.00 0.00 0.00 0.00 0.00 0.00 0.00 0.00 0.00 0.00 0.00 0.00 0.00 0.00 0.00 0.00 0.00 0.00 0.00 0.00 0.00 0.00 0.00 0.00 0.00 0.00 0.00 0.00 0.00 0.00
0.01 0.01 0.00 0.00 0.00 0.00 0.00 0.00 0.00 0.00 0.00 0.00 0.00 0.00 0.00 0.00 0.00 0.00 0.00 0.00 0.00 0.00 0.00 0.00 0.00 0.00 0.00 0.00 0.00 0.00 0.00 0.00 0.00 0.00 0.00 0.00 0.00 0.00 0.00 0.00 0.00 0.00 0.00 0.00
0.02 0.01 0.01 0.00 0.00 0.00 0.00 0.00 0.00 0.00 0.00 0.00 0.00 0.00 0.00 0.00 0.00 0.00 0.00 0.00 0.00 0.00 0.00 0.00 0.00 0.00 0.00 0.00 0.00 0.00 0.00 0.00 0.00 0.00 0.00 0.00 0.00 0.00 0.00 0.00 0.00 0.00 0.00 0.00
0.01 0.01 0.01 0.01 0.00 0.00 0.00 0.00 0.00 0.00 0.00 0.01 0.00 0.00 0.00 0.00 0.00 0.00 0.00 0.00 0.00 0.00 0.00 0.00 0.00 0.00 0.00 0.00 0.00 0.00 0.00 0.00 0.00 0.00 0.00 0.00 0.00 0.00 0.00 0.00 0.00 0.00 0.00 0.00
0.02 0.01 0.01 0.01 0.00 0.00 0.00 0.01 0.02 0.01 0.01 0.00 0.00 0.00 0.00 0.00 0.00 0.00 0.00 0.00 0.00 0.00 0.00 0.00 0.00 0.00 0.00 0.00 0.00 0.00 0.00 0.00 0.00 0.00 0.00 0.00 0.00 0.00 0.00 0.00 0.00 0.00 0.00 0.00
0.03 0.02 0.01 0.01 0.01 0.01 0.01 0.00 0.01 0.01 0.00 0.00 0.00 0.00 0.00 0.00 0.00 0.00 0.00 0.00 0.00 0.00 0.00 0.00 0.00 0.00 0.00 0.00 0.00 0.00 0.00 0.00 0.00 0.00 0.00 0.00 0.00 0.00 0.00 0.00 0.00 0.00 0.00 0.00
0.02 0.01 0.01 0.00 0.00 0.00 0.00 0.00 0.00 0.01 0.01 0.01 0.00 0.00 0.00 0.00 0.00 0.00 0.00 0.00 0.00 0.00 0.00 0.00 0.00 0.00 0.00 0.00 0.00 0.00 0.00 0.00 0.00 0.00 0.00 0.00 0.00 0.00 0.00 0.00 0.00 0.00 0.00 0.00
0.03 0.02 0.01 0.01 0.01 0.01 0.00 0.00 0.01 0.01 0.01 0.01 0.00 0.00 0.00 0.00 0.00 0.00 0.00 0.00 0.00 0.00 0.00 0.00 0.00 0.00 0.00 0.00 0.00 0.00 0.00 0.00 0.00 0.00 0.00 0.00 0.00 0.00 0.00 0.00 0.00 0.00 0.00 0.00
0.04 0.03 0.02 0.01 0.01 0.01 0.01 0.01 0.01 0.01 0.01 0.01 0.00 0.01 0.00 0.00 0.00 0.00 0.00 0.00 0.00 0.00 0.00 0.00 0.00 0.00 0.00 0.00 0.00 0.00 0.00 0.00 0.00 0.00 0.00 0.00 0.00 0.00 0.00 0.00 0.00 0.00 0.00 0.00
0.05 0.05 0.03 0.01 0.01 0.00 0.01 0.02 0.02 0.02 0.01 0.01 0.01 0.01 0.00 0.00 0.00 0.00 0.00 0.00 0.00 0.00 0.00 0.00 0.00 0.00 0.00 0.00 0.00 0.00 0.00 0.00 0.00 0.00 0.00 0.00 0.00 0.00 0.00 0.00 0.00 0.00 0.00 0.00
0.07 0.09 0.07 0.06 0.04 0.01 0.01 0.01 0.01 0.02 0.01 0.01 0.01 0.01 0.01 0.00 0.00 0.00 0.00 0.00 0.00 0.00 0.00 0.00 0.00 0.00 0.00 0.00 0.00 0.00 0.00 0.00 0.00 0.00 0.00 0.00 0.00 0.00 0.00 0.00 0.00 0.00 0.00 0.00
0.07 0.07 0.05 0.04 0.02 0.01 0.01 0.00 0.00 0.01 0.02 0.01 0.01 0.01 0.01 0.01 0.00 0.00 0.00 0.00 0.00 0.00 0.00 0.00 0.00 0.00 0.00 0.00 0.00 0.00 0.00 0.00 0.00 0.00 0.00 0.00 0.00 0.00 0.00 0.00 0.00 0.00 0.00 0.00
0.08 0.07 0.03 0.01 0.01 0.01 0.01 0.01 0.00 0.01 0.01 0.01 0.01 0.01 0.01 0.01 0.00 0.00 0.00 0.00 0.00 0.00 0.00 0.00 0.00 0.00 0.00 0.00 0.00 0.00 0.00 0.00 0.00 0.00 0.00 0.00 0.00 0.00 0.00 0.00 0.00 0.00 0.00 0.00
0.11 0.08 0.04 0.03 0.01 0.02 0.01 0.01 0.01 0.01 0.01 0.01 0.01 0.01 0.01 0.01 0.01 0.00 0.00 0.00 0.00 0.00 0.00 0.00 0.00 0.00 0.00 0.00 0.00 0.00 0.00 0.00 0.00 0.00 0.00 0.00 0.00 0.00 0.00 0.00 0.00 0.00 0.00 0.00
0.09 0.08 0.06 0.05 0.03 0.04 0.04 0.02 0.02 0.01 0.02 0.02 0.02 0.01 0.00 0.00 0.00 0.00 0.00 0.00 0.00 0.00 0.00 0.00 0.00 0.00 0.00 0.00 0.00 0.00 0.00 0.00 0.00 0.00 0.00 0.00 0.00 0.00 0.00 0.00 0.00 0.00 0.00 0.00
0.07 0.06 0.06 0.05 0.06 0.09 0.05 0.02 0.01 0.02 0.02 0.02 0.01 0.01 0.01 0.00 0.00 0.00 0.00 0.00 0.00 0.00 0.00 0.00 0.00 0.00 0.00 0.00 0.00 0.00 0.00 0.00 0.00 0.00 0.00 0.00 0.00 0.00 0.00 0.00 0.00 0.00 0.00 0.00
0.04 0.05 0.05 0.05 0.06 0.05 0.03 0.02 0.02 0.02 0.03 0.01 0.01 0.01 0.01 0.00 0.00 0.00 0.00 0.00 0.00 0.00 0.00 0.00 0.00 0.00 0.00 0.00 0.00 0.00 0.00 0.00 0.00 0.00 0.00 0.00 0.00 0.00 0.00 0.00 0.00 0.00 0.00 0.00
0.03 0.04 0.05 0.05 0.05 0.05 0.03 0.02 0.02 0.02 0.03 0.01 0.01 0.01 0.01 0.01 0.01 0.01 0.00 0.00 0.00 0.00 0.00 0.00 0.00 0.00 0.00 0.00 0.00 0.00 0.00 0.00 0.00 0.00 0.00 0.00 0.00 0.00 0.00 0.00 0.00 0.00 0.00 0.00
0.04 0.05 0.05 0.05 0.04 0.03 0.02 0.02 0.02 0.03 0.03 0.01 0.01 0.01 0.01 0.01 0.01 0.00 0.00 0.00 0.00 0.00 0.00 0.00 0.00 0.00 0.00 0.00 0.00 0.00 0.00 0.00 0.00 0.00 0.00 0.00 0.00 0.00 0.00 0.01 0.01 0.00 0.00 0.00
0.04 0.04 0.04 0.03 0.04 0.02 0.01 0.01 0.02 0.03 0.02 0.02 0.01 0.01 0.01 0.01 0.01 0.00 0.00 0.00 0.00 0.00 0.00 0.00 0.00 0.00 0.00 0.00 0.00 0.00 0.00 0.00 0.00 0.00 0.00 0.00 0.00 0.00 0.00 0.00 0.00 0.00 0.00 0.00
0.03 0.04 0.04 0.03 0.03 0.02 0.01 0.02 0.02 0.02 0.02 0.02 0.01 0.01 0.01 0.01 0.01 0.01 0.01 0.01 0.01 0.01 0.00 0.00 0.00 0.00 0.00 0.00 0.00 0.00 0.00 0.00 0.00 0.00 0.00 0.00 0.00 0.00 0.00 0.00 0.00 0.00 0.00 0.00
0.03 0.02 0.02 0.03 0.03 0.02 0.01 0.01 0.01 0.01 0.01 0.01 0.01 0.01 0.01 0.01 0.01 0.01 0.01 0.01 0.01 0.00 0.00 0.00 0.00 0.00 0.00 0.00 0.00 0.00 0.00 0.00 0.00 0.00 0.00 0.00 0.00 0.00 0.00 0.00 0.00 0.00 0.00 0.01
0.03 0.02 0.02 0.03 0.03 0.02 0.01 0.01 0.01 0.01 0.01 0.01 0.01 0.01 0.01 0.01 0.01 0.01 0.01 0.01 0.00 0.00 0.00 0.00 0.00 0.00 0.00 0.00 0.00 0.00 0.00 0.00 0.00 0.00 0.00 0.00 0.00 0.00 0.00 0.00 0.00 0.00 0.01 0.01
0.02 0.02 0.02 0.02 0.02 0.02 0.02 0.02 0.02 0.01 0.01 0.01 0.01 0.01 0.01 0.01 0.00 0.00 0.00 0.00 0.00 0.00 0.00 0.00 0.00 0.00 0.00 0.00 0.00 0.00 0.00 0.00 0.00 0.00 0.00 0.00 0.00 0.00 0.00 0.00 0.00 0.00 0.01 0.01
MSLP
1011.98 1012.31 1012.45 1012.42 1012.27 1012.06 1011.84 1011.65 1011.50 1011.39 1011.28 1011.14 1010.94 1010.66 1010.32 1009.94 1009.57 1009.26 1009.05 1008.96 1009.01 1009.18 1009.46 1009.80 1010.20 1010.63 1011.11 1011.65 1012.26 1012.96 1013.75 1014.62 1015.53 1016.43 1017.29 1018.05 1018.69 1019.18 1019.55 1019.81 1020.03 1020.23 1020.47 1020.76
1011.69 1011.95 1012.04 1011.98 1011.83 1011.65 1011.48 1011.36 1011.29 1011.23 1011.14 1010.98 1010.72 1010.34 1009.88 1009.37 1008.88 1008.47 1008.20 1008.08 1008.14 1008.33 1008.64 1009.02 1009.44 1009.89 1010.37 1010.90 1011.51 1012.22 1013.04 1013.95 1014.93 1015.92 1016.86 1017.71 1018.42 1018.97 1019.38 1019.68 1019.92 1020.14 1020.40 1020.71
1011.05 1011.26 1011.32 1011.27 1011.18 1011.09 1011.04 1011.05 1011.09 1011.11 1011.05 1010.86 1010.51 1010.01 1009.38 1008.70 1008.05 1007.51 1007.14 1006.98 1007.02 1007.23 1007.58 1008.02 1008.49 1008.99 1009.51 1010.08 1010.72 1011.46 1012.32 1013.28 1014.31 1015.36 1016.37 1017.28 1018.05 1018.65 1019.11 1019.45 1019.73 1020.00 1020.30 1020.65
1010.12 1010.26 1010.31 1010.32 1010.33 1010.39 1010.52 1010.71 1010.90 1011.02 1011.01 1010.79 1010.35 1009.70 1008.88 1008.00 1007.15 1006.44 1005.94 1005.69 1005.69 1005.91 1006.30 1006.79 1007.35 1007.92 1008.52 1009.16 1009.87 1010.67 1011.59 1012.60 1013.67 1014.76 1015.81 1016.76 1017.56 1018.21 1018.72 1019.11 1019.44 1019.77 1020.12 1020.52
1009.02 1009.08 1009.12 1009.18 1009.32 1009.56 1009.90 1010.30 1010.67 1010.92 1010.96 1010.73 1010.20 1009.39 1008.39 1007.29 1006.23 1005.33 1004.67 1004.31 1004.25 1004.46 1004.87 1005.43 1006.06 1006.73 1007.43 1008.17 1008.97 1009.84 1010.82 1011.88 1012.99 1014.11 1015.18 1016.15 1016.98 1017.66 1018.20 1018.65 1019.04 1019.43 1019.84 1020.31
1007.94 1007.87 1007.86 1007.97 1008.22 1008.64 1009.18 1009.78 1010.33 1010.71 1010.82 1010.59 1009.98 1009.05 1007.88 1006.59 1005.34 1004.25 1003.44 1002.96 1002.82 1002.99 1003.42 1004.01 1004.72 1005.48 1006.28 1007.12 1008.01 1008.98 1010.02 1011.12 1012.26 1013.40 1014.47 1015.45 1016.29 1017.00 1017.59 1018.08 1018.54 1018.99 1019.48 1020.00
1007.03 1006.80 1006.70 1006.79 1007.11 1007.65 1008.35 1009.11 1009.81 1010.31 1010.48 1010.26 1009.62 1008.61 1007.32 1005.90 1004.51 1003.29 1002.35 1001.77 1001.56 1001.68 1002.09 1002.71 1003.45 1004.28 1005.16 1006.08 1007.06 1008.09 1009.18 1010.32 1011.49 1012.63 1013.71 1014.69 1015.54 1016.27 1016.90 1017.45 1017.97 1018.49 1019.03 1019.61
1006.44 1005.99 1005.74 1005.75 1006.06 1006.63 1007.40 1008.26 1009.04 1009.62 1009.85 1009.66 1009.03 1008.01 1006.70 1005.23 1003.79 1002.51 1001.52 1000.88 1000.61 1000.69 1001.07 1001.66 1002.41 1003.26 1004.17 1005.13 1006.15 1007.22 1008.34 1009.51 1010.68 1011.82 1012.90 1013.88 1014.75 1015.51 1016.18 1016.78 1017.36 1017.95 1018.55 1019.17
1006.22 1005.51 1005.05 1004.90 1005.10 1005.61 1006.35 1007.20 1008.01 1008.62 1008.90 1008.76 1008.20 1007.25 1006.01 1004.62 1003.24 1002.01 1001.04 1000.41 1000.12 1000.16 1000.49 1001.04 1001.74 1002.54 1003.42 1004.37 1005.37 1006.43 1007.55 1008.70 1009.87 1011.00 1012.08 1013.07 1013.96 1014.75 1015.46 1016.12 1016.75 1017.39 1018.04 1018.70
1006.31 1005.33 1004.63 1004.26 1004.27 1004.62 1005.23 1005.99 1006.75 1007.35 1007.65 1007.60 1007.16 1006.36 1005.30 1004.11 1002.91 1001.84 1001.00 1000.44 1000.18 1000.21 1000.48 1000.94 1001.54 1002.24 1003.03 1003.88 1004.80 1005.80 1006.87 1007.97 1009.10 1010.22 1011.28 1012.27 1013.18 1014.00 1014.76 1015.47 1016.16 1016.85 1017.54 1018.23
1006.62 1005.39 1004.43 1003.81 1003.57 1003.69 1004.11 1004.71 1005.36 1005.91 1006.24 1006.29 1006.02 1005.46 1004.68 1003.78 1002.88 1002.07 1001.44 1001.03 1000.85 1000.88 1001.09 1001.44 1001.89 1002.43 1003.05 1003.75 1004.53 1005.40 1006.36 1007.38 1008.44 1009.51 1010.55 1011.53 1012.45 1013.30 1014.09 1014.85 1015.58 1016.31 1017.03 1017.75
1007.00 1005.56 1004.37 1003.50 1003.01 1002.88 1003.07 1003.49 1004.00 1004.49 1004.85 1005.01 1004.95 1004.67 1004.23 1003.71 1003.17 1002.70 1002.34 1002.12 1002.04 1002.09 1002.24 1002.46 1002.75 1003.09 1003.50 1003.99 1004.58 1005.27 1006.08 1006.98 1007.94 1008.93 1009.92 1010.88 1011.79 1012.65 1013.46 1014.25 1015.01 1015.77 1016.52 1017.26
1007.33 1005.75 1004.38 1003.31 1002.60 1002.25 1002.23 1002.46 1002.84 1003.27 1003.66 1003.95 1004.11 1004.15 1004.07 1003.94 1003.80 1003.68 1003.61 1003.60 1003.64 1003.71 1003.80 1003.90 1004.00 1004.13 1004.32 1004.58 1004.95 1005.44 1006.07 1006.81 1007.64 1008.53 1009.43 1010.34 1011.22 1012.06 1012.88 1013.67 1014.45 1015.22 1015.99 1016.74
1007.53 1005.88 1004.42 1003.23 1002.37 1001.86 1001.67 1001.76 1002.04 1002.44 1002.87 1003.30 1003.67 1003.99 1004.26 1004.50 1004.71 1004.93 1005.13 1005.31 1005.47 1005.56 1005.60 1005.58 1005.52 1005.45 1005.42 1005.46 1005.62 1005.91 1006.34 1006.91 1007.58 1008.34 1009.14 1009.96 1010.78 1011.58 1012.37 1013.14 1013.91 1014.68 1015.45 1016.20
1007.61 1005.97 1004.50 1003.27 1002.35 1001.76 1001.48 1001.49 1001.72 1002.11 1002.60 1003.14 1003.70 1004.25 1004.80 1005.34 1005.85 1006.32 1006.74 1007.08 1007.31 1007.43 1007.43 1007.31 1007.12 1006.90 1006.69 1006.55 1006.52 1006.62 1006.88 1007.27 1007.79 1008.40 1009.07 1009.78 1010.50 1011.23 1011.96 1012.70 1013.44 1014.18 1014.93 1015.67
1007.61 1006.05 1004.65 1003.47 1002.57 1001.99 1001.71 1001.70 1001.93 1002.34 1002.88 1003.51 1004.20 1004.92 1005.66 1006.39 1007.09 1007.74 1008.29 1008.72 1009.01 1009.13 1009.10 1008.93 1008.66 1008.33 1008.02 1007.75 1007.59 1007.55 1007.66 1007.90 1008.26 1008.72 1009.25 1009.83 1010.43 1011.07 1011.72 1012.39 1013.08 1013.78 1014.49 1015.20
1007.64 1006.21 1004.93 1003.87 1003.07 1002.57 1002.35 1002.39 1002.65 1003.09 1003.68 1004.36 1005.12 1005.93 1006.75 1007.57 1008.35 1009.06 1009.66 1010.12 1010.42 1010.54 1010.50 1010.31 1010.01 1009.66 1009.30 1008.98 1008.75 1008.63 1008.63 1008.75 1008.98 1009.30 1009.68 1010.13 1010.61 1011.13 1011.69 1012.28 1012.90 1013.54 1014.20 1014.87
1007.80 1006.52 1005.40 1004.50 1003.86 1003.48 1003.36 1003.48 1003.81 1004.29 1004.89 1005.59 1006.36 1007.16 1007.97 1008.77 1009.53 1010.21 1010.78 1011.21 1011.49 1011.60 1011.56 1011.39 1011.12 1010.80 1010.47 1010.18 1009.95 1009.80 1009.75 1009.78 1009.91 1010.10 1010.36 1010.67 1011.03 1011.44 1011.90 1012.40 1012.94 1013.51 1014.11 1014.72
1008.15 1007.03 1006.09 1005.37 1004.90 1004.67 1004.68 1004.89 1005.27 1005.78 1006.39 1007.06 1007.77 1008.50 1009.23 1009.93 1010.59 1011.17 1011.65 1012.02 1012.26 1012.36 1012.34 1012.22 1012.02 1011.78 1011.53 1011.31 1011.12 1010.99 1010.93 1010.92 1010.97 1011.07 1011.22 1011.42 1011.67 1011.98 1012.34 1012.75 1013.22 1013.72 1014.24 1014.78
1008.71 1007.76 1006.99 1006.45 1006.15 1006.07 1006.19 1006.49 1006.92 1007.43 1008.01 1008.62 1009.24 1009.86 1010.45 1011.01 1011.52 1011.97 1012.34 1012.63 1012.81 1012.91 1012.92 1012.86 1012.76 1012.62 1012.48 1012.35 1012.24 1012.16 1012.10 1012.08 1012.08 1012.11 1012.18 1012.29 1012.45 1012.67 1012.95 1013.29 1013.68 1014.12 1014.57 1015.03
1009.45 1008.67 1008.08 1007.71 1007.55 1007.60 1007.82 1008.18 1008.63 1009.13 1009.65 1010.18 1010.68 1011.16 1011.61 1012.01 1012.37 1012.68 1012.93 1013.13 1013.27 1013.36 1013.41 1013.42 1013.40 1013.37 1013.33 1013.30 1013.26 1013.23 1013.20 1013.17 1013.15 1013.13 1013.14 1013.18 1013.28 1013.43 1013.65 1013.93 1014.26 1014.63 1015.01 1015.39
1010.32 1009.72 1009.31 1009.09 1009.06 1009.21 1009.49 1009.87 1010.31 1010.77 1011.23 1011.65 1012.04 1012.38 1012.68 1012.94 1013.16 1013.35 1013.50 1013.63 1013.74 1013.82 1013.89 1013.95 1014.00 1014.05 1014.10 1014.13 1014.15 1014.16 1014.15 1014.11 1014.07 1014.02 1013.99 1013.99 1014.04 1014.14 1014.32 1014.55 1014.83 1015.14 1015.46 1015.77
1011.28 1010.86 1010.61 1010.53 1010.61 1010.83 1011.14 1011.52 1011.93 1012.32 1012.69 1013.01 1013.29 1013.51 1013.69 1013.83 1013.94 1014.03 1014.11 1014.18 1014.25 1014.33 1014.41 1014.49 1014.58 1014.67 1014.75 1014.82 1014.87 1014.89 1014.88 1014.84 1014.77 1014.71 1014.65 1014.62 1014.63 1014.71 1014.84 1015.04 1015.27 1015.53 1015.79 1016.04
1012.26 1012.04 1011.96 1012.01 1012.17 1012.43 1012.75 1013.09 1013.43 1013.75 1014.02 1014.24 1014.41 1014.52 1014.60 1014.66 1014.69 1014.72 1014.74 1014.78 1014.82 1014.87 1014.94 1015.02 1015.11 1015.19 1015.27 1015.33 1015.37 1015.37 1015.34 1015.28 1015.20 1015.12 1015.04 1015.00 1014.99 1015.05 1015.15 1015.31 1015.50 1015.71 1015.92 1016.10
1013.26 1013.23 1013.31 1013.47 1013.69 1013.97 1014.27 1014.55 1014.81 1015.03 1015.20 1015.32 1015.39 1015.42 1015.42 1015.41 1015.39 1015.37 1015.36 1015.36 1015.37 1015.40 1015.43 1015.47 1015.52 1015.56 1015.60 1015.61 1015.61 1015.58 1015.52 1015.43 1015.34 1015.24 1015.16 1015.10 1015.09 1015.12 1015.20 1015.32 1015.46 1015.62 1015.78 1015.91
1014.26 1014.41 1014.62 1014.87 1015.14 1015.41 1015.66 1015.87 1016.04 1016.15 1016.21 1016.22 1016.20 1016.15 1016.09 1016.03 1015.97 1015.92 1015.88 1015.84 1015.82 1015.79 1015.77 1015.75 1015.73 1015.71 1015.67 1015.62 1015.56 1015.48 1015.39 1015.29 1015.19 1015.09 1015.00 1014.95 1014.92 1014.94 1014.98 1015.06 1015.16 1015.26 1015.36 1015.45
Thickness
5561 5559 5565 5576 5581 5586 5587 5588 5591 5600 5610 5610 5611 5618 5627 5632 5634 5634 5634 5638 5642 5646 5650 5650 5651 5650 5649 5647 5645 5643 5641 5638 5637 5634 5631 5628 5626 5625 5624 5624 5624 5623 5622 5621
5546 5553 5569 5572 5573 5576 5579 5580 5583 5593 5602 5603 5603 5609 5618 5624 5628 5633 5634 5635 5638 5639 5641 5643 5643 5643 5642 5641 5639 5637 5635 5633 5631 5629 5626 5623 5620 5618 5617 5616 5615 5615 5614 5612
5542 5557 5564 5565 5566 5567 5570 5572 5577 5582 5590 5594 5594 5596 5606 5616 5622 5627 5631 5634 5636 5638 5638 5637 5636 5635 5635 5634 5633 5633 5629 5627 5625 5622 5618 5615 5611 5609 5607 5607 5606 5606 5605 5603
5536 5549 5555 5556 5560 5563 5563 5574 5575 5575 5570 5568 5579 5571 5596 5606 5612 5619 5622 5625 5629 5633 5634 5634 5633 5630 5629 5629 5627 5625 5622 5619 5617 5614 5612 5609 5605 5601 5600 5598 5597 5597 5596 5594
5529 5541 5546 5550 5559 5562 5562 5570 5567 5566 5560 5556 5564 5562 5584 5597 5604 5613 5617 5621 5624 5626 5628 5629 5628 5627 5624 5622 5619 5617 5614 5612 5609 5607 5604 5601 5597 5594 5592 5590 5589 5587 5586 5585
5524 5535 5540 5548 5555 5556 5557 5554 5549 5543 5542 5542 5557 5555 5573 5586 5604 5611 5613 5615 5617 5619 5621 5621 5621 5619 5616 5613 5611 5609 5606 5603 5600 5598 5595 5593 5590 5586 5583 5581 5579 5577 5576 5575
5510 5521 5532 5540 5539 5542 5544 5534 5519 5519 5517 5531 5552 5554 5571 5590 5600 5606 5608 5609 5610 5612 5612 5612 5611 5610 5608 5605 5603 5600 5598 5594 5591 5589 5586 5584 5582 5579 5576 5573 5571 5568 5566 5565
5494 5503 5519 5529 5534 5533 5534 5533 5519 5517 5517 5528 5542 5544 5566 5584 5593 5598 5601 5603 5602 5602 5604 5604 5604 5603 5600 5597 5594 5592 5589 5586 5583 5580 5577 5575 5573 5570 5568 5565 5563 5560 5558 5556
5489 5498 5514 5523 5530 5531 5524 5524 5529 5516 5513 5519 5527 5541 5561 5575 5580 5586 5590 5590 5591 5593 5594 5595 5594 5594 5592 5589 5586 5585 5582 5578 5575 5572 5569 5566 5563 5561 5558 5556 5553 5550 5548 5546
5484 5486 5500 5511 5520 5522 5525 5523 5511 5506 5508 5518 5529 5537 5548 5561 5567 5574 5576 5578 5580 5582 5582 5583 5583 5583 5582 5580 5577 5575 5572 5569 5566 5563 5560 5558 5554 5552 5549 5546 5543 5541 5539 5537
5475 5473 5481 5493 5501 5506 5510 5513 5510 5502 5502 5511 5516 5532 5551 5554 5559 5561 5564 5566 5568 5569 5570 5571 5571 5571 5570 5568 5565 5563 5560 5558 5555 5553 5550 5547 5544 5542 5539 5536 5534 5532 5529 5527
5464 5459 5463 5476 5488 5499 5505 5507 5502 5500 5495 5498 5508 5523 5543 5544 5546 5550 5551 5553 5555 5556 5556 5557 5557 5557 5556 5554 5552 5551 5549 5547 5545 5543 5540 5537 5534 5531 5529 5526 5524 5522 5520 5517
5456 5450 5453 5460 5467 5479 5487 5494 5496 5494 5486 5482 5495 5515 5528 5529 5532 5536 5537 5538 5540 5541 5542 5542 5542 5543 5542 5541 5540 5538 5537 5536 5534 5531 5529 5526 5523 5521 5518 5516 5514 5512 5509 5507
5450 5442 5452 5463 5470 5470 5473 5482 5486 5487 5482 5480 5495 5506 5513 5516 5519 5520 5522 5523 5524 5526 5528 5528 5527 5527 5528 5527 5527 5526 5524 5524 5522 5520 5518 5515 5513 5510 5508 5505 5503 5501 5499 5497
5436 5433 5441 5453 5463 5465 5472 5477 5481 5482 5482 5483 5492 5496 5502 5502 5504 5505 5506 5508 5510 5511 5512 5513 5513 5512 5513 5513 5512 5513 5512 5511 5510 5508 5506 5504 5501 5499 5497 5495 5492 5490 5488 5486
5420 5423 5429 5440 5453 5457 5459 5464 5472 5475 5476 5478 5481 5482 5490 5490 5490 5490 5492 5496 5497 5498 5499 5499 5500 5500 5500 5499 5499 5499 5498 5498 5497 5496 5494 5492 5489 5487 5485 5484 5481 5479 5477 5474
5406 5412 5418 5426 5437 5445 5440 5447 5456 5461 5464 5471 5475 5477 5477 5477 5480 5480 5481 5483 5484 5485 5486 5486 5486 5487 5487 5487 5487 5486 5486 5485 5485 5483 5481 5479 5478 5476 5474 5472 5470 5467 5465 5463
5399 5402 5403 5409 5422 5428 5434 5441 5449 5451 5452 5458 5463 5466 5467 5468 5466 5466 5468 5469 5470 5471 5472 5471 5471 5473 5474 5475 5475 5474 5473 5473 5472 5470 5469 5467 5465 5464 5462 5460 5458 5456 5453 5451
5398 5397 5394 5396 5403 5411 5424 5431 5433 5438 5438 5443 5449 5451 5452 5453 5453 5451 5453 5456 5457 5457 5458 5457 5458 5459 5460 5460 5461 5461 5460 5459 5458 5457 5456 5454 5453 5452 5450 5448 5446 5444 5442 5440
5388 5389 5386 5385 5393 5402 5415 5422 5426 5432 5426 5433 5437 5439 5440 5444 5441 5438 5440 5441 5442 5443 5444 5444 5444 5445 5446 5446 5447 5447 5446 5445 5444 5443 5443 5442 5441 5440 5438 5436 5434 5433 5431 5429
5375 5375 5375 5376 5378 5389 5401 5409 5419 5418 5420 5423 5425 5428 5430 5430 5431 5427 5426 5426 5427 5429 5430 5431 5431 5431 5431 5433 5434 5433 5432 5431 5431 5431 5430 5429 5428 5427 5426 5424 5423 5421 5419 5418
5364 5364 5364 5365 5370 5381 5391 5397 5400 5402 5406 5409 5412 5414 5414 5412 5413 5413 5413 5412 5413 5414 5415 5416 5416 5416 5417 5419 5420 5419 5418 5418 5418 5418 5417 5416 5415 5415 5414 5412 5410 5409 5408 5407
5354 5358 5357 5361 5366 5371 5376 5381 5385 5390 5393 5395 5397 5399 5400 5399 5398 5398 5398 5397 5398 5399 5400 5401 5401 5401 5403 5404 5406 5405 5404 5405 5405 5405 5404 5403 5402 5402 5401 5400 5399 5398 5396 5395
5345 5349 5349 5351 5355 5360 5364 5369 5373 5377 5379 5382 5384 5385 5387 5386 5385 5384 5384 5383 5384 5384 5385 5386 5387 5388 5388 5390 5391 5391 5392 5392 5392 5391 5390 5390 5390 5389 5388 5388 5387 5386 5385 5384
5332 5338 5340 5342 5346 5350 5353 5356 5360 5363 5365 5367 5369 5371 5371 5372 5370 5370 5369 5369 5370 5371 5371 5372 5373 5373 5373 5375 5376 5378 5379 5379 5379 5378 5378 5377 5377 5377 5376 5376 5375 5375 5375 5374
5319 5325 5332 5337 5338 5339 5341 5345 5348 5351 5351 5353 5355 5356 5356 5358 5357 5357 5356 5356 5357 5357 5358 5358 5358 5359 5360 5361 5362 5363 5365 5365 5365 5366 5366 5366 5365 5365 5365 5364 5364 5365 5364 5366